GLO6739 SBKG-SBFN

Flight info

Callsign GLO6739
Flight time 1h 0m
Altitude 31000
Route JPS DCT FNR
Aircraft B738/M-SDE2E3FGHIRWXY/LB1

Departure

Time 2026-05-06 00:07
Airport Presidente João Suassuna Airport (SBKG)

Arrival

Time 2026-05-06 01:07
Airport Fernando de Noronha Airport (SBFN)
Time Latitude Longitude Altitude Speed Heading
2026-05-05 23:43 -7.26933 -35.89417 1643 ft 0 kts 35°
2026-05-05 23:58 -7.26937 -35.89419 1641 ft 4 kts 37°
2026-05-05 23:58 -7.26953 -35.89438 1641 ft 4 kts 83°
2026-05-05 23:59 -7.26951 -35.89454 1641 ft 0 kts 124°
2026-05-06 00:02 -7.26956 -35.89447 1636 ft 3 kts 130°
2026-05-06 00:02 -7.26979 -35.89436 1635 ft 3 kts 185°
2026-05-06 00:02 -7.26995 -35.89448 1637 ft 3 kts 224°
2026-05-06 00:03 -7.27017 -35.89468 1639 ft 5 kts 222°
2026-05-06 00:03 -7.27028 -35.89501 1635 ft 6 kts 283°
2026-05-06 00:03 -7.27006 -35.89537 1637 ft 7 kts 305°
2026-05-06 00:03 -7.26977 -35.89578 1637 ft 7 kts 305°
2026-05-06 00:04 -7.26947 -35.89622 1638 ft 8 kts 305°
2026-05-06 00:04 -7.26917 -35.89666 1635 ft 7 kts 305°
2026-05-06 00:04 -7.26884 -35.89714 1641 ft 10 kts 305°
2026-05-06 00:04 -7.26836 -35.89783 1644 ft 14 kts 305°
2026-05-06 00:05 -7.26706 -35.89968 1636 ft 16 kts 305°
2026-05-06 00:05 -7.26643 -35.90058 1635 ft 15 kts 305°
2026-05-06 00:05 -7.26606 -35.90131 1639 ft 10 kts 283°
2026-05-06 00:06 -7.26576 -35.90176 1644 ft 2 kts 11°
2026-05-06 00:06 -7.26576 -35.90170 1636 ft 1 kts 84°
2026-05-06 00:06 -7.26586 -35.90140 1638 ft 13 kts 118°
2026-05-06 00:06 -7.26768 -35.89877 1637 ft 85 kts 125°
2026-05-06 00:07 -7.27245 -35.89196 1687 ft 146 kts 125°
2026-05-06 00:07 -7.27865 -35.88306 2276 ft 159 kts 124°
2026-05-06 00:07 -7.28481 -35.87407 3194 ft 158 kts 126°
2026-05-06 00:07 -7.28875 -35.86298 3651 ft 191 kts 93°
2026-05-06 00:08 -7.28692 -35.84897 3921 ft 216 kts 86°
2026-05-06 00:08 -7.28411 -35.83322 4193 ft 238 kts 84°
2026-05-06 00:08 -7.28098 -35.81612 4561 ft 258 kts 83°
2026-05-06 00:08 -7.27774 -35.79801 5262 ft 266 kts 84°
2026-05-06 00:09 -7.27455 -35.77957 6099 ft 269 kts 84°
2026-05-06 00:09 -7.27141 -35.76085 6876 ft 272 kts 84°
2026-05-06 00:09 -7.26833 -35.74206 7753 ft 271 kts 84°
2026-05-06 00:09 -7.26534 -35.72339 8626 ft 270 kts 83°
2026-05-06 00:10 -7.26242 -35.70490 9406 ft 272 kts 83°
2026-05-06 00:10 -7.25948 -35.68604 10213 ft 273 kts 83°
2026-05-06 00:10 -7.25648 -35.66662 10583 ft 291 kts 83°
2026-05-06 00:10 -7.25326 -35.64565 10741 ft 314 kts 82°
2026-05-06 00:11 -7.24984 -35.62327 10995 ft 330 kts 82°
2026-05-06 00:11 -7.24630 -35.60016 11503 ft 337 kts 82°
2026-05-06 00:11 -7.24270 -35.57666 12120 ft 341 kts 82°
2026-05-06 00:11 -7.23908 -35.55304 12789 ft 342 kts 81°
2026-05-06 00:12 -7.23549 -35.52953 13366 ft 346 kts 81°
2026-05-06 00:12 -7.23180 -35.50541 13948 ft 351 kts 81°
2026-05-06 00:12 -7.22806 -35.48096 14493 ft 354 kts 82°
2026-05-06 00:12 -7.22430 -35.45635 15017 ft 358 kts 81°
2026-05-06 00:13 -7.22050 -35.43146 15500 ft 362 kts 81°
2026-05-06 00:13 -7.21665 -35.40621 15973 ft 367 kts 81°
2026-05-06 00:13 -7.21275 -35.38070 16471 ft 371 kts 81°
2026-05-06 00:13 -7.20880 -35.35487 16966 ft 375 kts 81°
2026-05-06 00:14 -7.20487 -35.32916 17441 ft 379 kts 81°
2026-05-06 00:14 -7.20084 -35.30282 17918 ft 383 kts 81°
2026-05-06 00:14 -7.19677 -35.27620 18375 ft 387 kts 81°
2026-05-06 00:14 -7.19266 -35.24933 18776 ft 390 kts 81°
2026-05-06 00:15 -7.18851 -35.22223 19186 ft 393 kts 81°
2026-05-06 00:15 -7.18432 -35.19494 19608 ft 396 kts 81°
2026-05-06 00:15 -7.18012 -35.16751 20043 ft 398 kts 81°
2026-05-06 00:15 -7.17588 -35.13988 20468 ft 401 kts 81°
2026-05-06 00:16 -7.17162 -35.11206 20875 ft 403 kts 81°
2026-05-06 00:16 -7.16737 -35.08442 21247 ft 407 kts 81°
2026-05-06 00:16 -7.16304 -35.05619 21642 ft 409 kts 81°
2026-05-06 00:16 -7.15869 -35.02781 22050 ft 412 kts 81°
2026-05-06 00:17 -7.15430 -34.99924 22460 ft 413 kts 81°
2026-05-06 00:17 -7.14834 -34.97096 22851 ft 415 kts 70°
2026-05-06 00:17 -7.13527 -34.94500 23132 ft 418 kts 54°
2026-05-06 00:17 -7.11621 -34.92319 23667 ft 415 kts 41°
2026-05-06 00:18 -7.09363 -34.90494 23963 ft 418 kts 37°
2026-05-06 00:18 -7.07068 -34.88752 24282 ft 420 kts 36°
2026-05-06 00:18 -7.04714 -34.86993 24485 ft 425 kts 36°
2026-05-06 00:18 -7.02333 -34.85212 24764 ft 427 kts 36°
2026-05-06 00:19 -6.99939 -34.83407 24940 ft 433 kts 37°
2026-05-06 00:19 -6.97531 -34.81577 25251 ft 433 kts 37°
2026-05-06 00:19 -6.95124 -34.79737 25509 ft 437 kts 37°
2026-05-06 00:19 -6.92700 -34.77876 25744 ft 440 kts 36°
2026-05-06 00:20 -6.90298 -34.76027 26015 ft 442 kts 37°
2026-05-06 00:20 -6.87855 -34.74145 26283 ft 443 kts 37°
2026-05-06 00:20 -6.85401 -34.72254 26557 ft 445 kts 37°
2026-05-06 00:20 -6.82939 -34.70356 26823 ft 447 kts 37°
2026-05-06 00:21 -6.80465 -34.68450 27045 ft 450 kts 37°
2026-05-06 00:21 -6.77974 -34.66532 27270 ft 452 kts 36°
2026-05-06 00:21 -6.75473 -34.64607 27555 ft 453 kts 36°
2026-05-06 00:21 -6.72974 -34.62683 27915 ft 452 kts 36°
2026-05-06 00:22 -6.70512 -34.60788 28260 ft 451 kts 36°
2026-05-06 00:22 -6.68019 -34.58868 28577 ft 452 kts 36°
2026-05-06 00:22 -6.65518 -34.56946 28900 ft 452 kts 35°
2026-05-06 00:22 -6.63018 -34.55027 29236 ft 452 kts 36°
2026-05-06 00:23 -6.60518 -34.53105 29581 ft 452 kts 35°
2026-05-06 00:23 -6.58022 -34.51182 29901 ft 452 kts 36°
2026-05-06 00:23 -6.55525 -34.49257 30230 ft 452 kts 35°
2026-05-06 00:23 -6.53021 -34.47335 30505 ft 452 kts 35°
2026-05-06 00:24 -6.50572 -34.45452 30958 ft 447 kts 35°
2026-05-06 00:24 -6.45611 -34.41641 31024 ft 450 kts 35°
2026-05-06 00:25 -6.40638 -34.37821 31026 ft 449 kts 35°
2026-05-06 00:25 -6.35686 -34.34012 31026 ft 447 kts 35°
2026-05-06 00:26 -6.30776 -34.30239 31030 ft 447 kts 35°
2026-05-06 00:26 -6.25841 -34.26446 31021 ft 447 kts 34°
2026-05-06 00:27 -6.20899 -34.22655 31029 ft 447 kts 34°
2026-05-06 00:27 -6.15948 -34.18859 31031 ft 448 kts 34°
2026-05-06 00:28 -6.11015 -34.15075 31023 ft 448 kts 35°
2026-05-06 00:28 -6.06060 -34.11274 31023 ft 448 kts 36°
2026-05-06 00:29 -6.01104 -34.07473 31028 ft 448 kts 35°
2026-05-06 00:29 -5.96184 -34.03691 31017 ft 448 kts 34°
2026-05-06 00:30 -5.91229 -33.99894 31028 ft 448 kts 34°
2026-05-06 00:30 -5.86273 -33.96097 31023 ft 448 kts 36°
2026-05-06 00:31 -5.81330 -33.92312 31018 ft 448 kts 34°
2026-05-06 00:31 -5.76374 -33.88516 31024 ft 448 kts 34°
2026-05-06 00:32 -5.71423 -33.84722 31017 ft 448 kts 34°
2026-05-06 00:32 -5.66503 -33.80962 31016 ft 447 kts 34°
2026-05-06 00:33 -5.61556 -33.77172 31023 ft 447 kts 34°
2026-05-06 00:33 -5.56605 -33.73385 31023 ft 447 kts 34°
2026-05-06 00:34 -5.51660 -33.69593 31028 ft 447 kts 34°
2026-05-06 00:34 -5.47040 -33.65554 30971 ft 440 kts 55°
2026-05-06 00:34 -5.45827 -33.62800 31032 ft 429 kts 77°
2026-05-06 00:35 -5.45722 -33.59866 31019 ft 418 kts 100°
2026-05-06 00:35 -5.46719 -33.57190 31002 ft 405 kts 124°
2026-05-06 00:35 -5.48619 -33.55196 31009 ft 392 kts 149°
2026-05-06 00:35 -5.51052 -33.54046 31025 ft 387 kts 164°
2026-05-06 00:36 -5.53666 -33.53486 31004 ft 389 kts 179°
2026-05-06 00:36 -5.56384 -33.53627 31018 ft 388 kts 196°
2026-05-06 00:36 -5.58856 -33.54547 31017 ft 383 kts 214°
2026-05-06 00:37 -5.63145 -33.57704 31030 ft 384 kts 221°
2026-05-06 00:37 -5.67345 -33.60988 31007 ft 378 kts 220°
2026-05-06 00:38 -5.71511 -33.64162 31025 ft 377 kts 221°
2026-05-06 00:38 -5.73459 -33.65899 31008 ft 373 kts 236°
2026-05-06 00:38 -5.74683 -33.68118 31029 ft 367 kts 254°
2026-05-06 00:38 -5.75163 -33.70619 31020 ft 365 kts 271°
2026-05-06 00:39 -5.74883 -33.73140 31024 ft 364 kts 287°
2026-05-06 00:39 -5.73864 -33.75455 31026 ft 363 kts 304°
2026-05-06 00:39 -5.72192 -33.77357 31012 ft 366 kts 321°
2026-05-06 00:39 -5.69993 -33.78632 31022 ft 368 kts 339°
2026-05-06 00:40 -5.67495 -33.79148 31031 ft 371 kts 357°
2026-05-06 00:40 -5.64924 -33.78873 31023 ft 376 kts 12°
2026-05-06 00:40 -5.62426 -33.78003 31024 ft 386 kts 21°
2026-05-06 00:41 -5.57696 -33.75222 31029 ft 405 kts 30°
2026-05-06 00:41 -5.52920 -33.72031 31037 ft 420 kts 31°
2026-05-06 00:42 -5.47975 -33.68723 31036 ft 434 kts 32°
2026-05-06 00:42 -5.42902 -33.65375 31034 ft 445 kts 30°
2026-05-06 00:43 -5.37685 -33.61963 31007 ft 449 kts 30°
2026-05-06 00:43 -5.33316 -33.59103 30747 ft 452 kts 31°
2026-05-06 00:43 -5.29845 -33.56825 30242 ft 445 kts 31°
2026-05-06 00:44 -5.27262 -33.55136 29767 ft 441 kts 31°
2026-05-06 00:44 -5.24710 -33.53467 29277 ft 436 kts 31°
2026-05-06 00:44 -5.23030 -33.52371 28982 ft 433 kts 31°
2026-05-06 00:44 -5.20522 -33.50738 28508 ft 428 kts 32°
2026-05-06 00:45 -5.17219 -33.48576 27910 ft 422 kts 32°
2026-05-06 00:45 -5.15576 -33.47500 27598 ft 420 kts 32°
2026-05-06 00:45 -5.13152 -33.45914 27151 ft 416 kts 32°
2026-05-06 00:45 -5.09957 -33.43828 26560 ft 412 kts 32°
2026-05-06 00:46 -5.07569 -33.42265 26117 ft 408 kts 32°
2026-05-06 00:46 -5.05197 -33.40715 25681 ft 406 kts 33°
2026-05-06 00:46 -5.02842 -33.39176 25239 ft 403 kts 33°
2026-05-06 00:46 -5.01278 -33.38155 24941 ft 401 kts 33°
2026-05-06 00:47 -4.98190 -33.36138 24341 ft 399 kts 33°
2026-05-06 00:47 -4.95873 -33.34625 23901 ft 396 kts 33°
2026-05-06 00:47 -4.93569 -33.33120 23424 ft 395 kts 34°
2026-05-06 00:47 -4.91276 -33.31620 22931 ft 392 kts 34°
2026-05-06 00:48 -4.89765 -33.30633 22619 ft 390 kts 34°
2026-05-06 00:48 -4.87505 -33.29157 22177 ft 386 kts 34°
2026-05-06 00:48 -4.85262 -33.27694 21737 ft 383 kts 34°
2026-05-06 00:48 -4.83040 -33.26241 21306 ft 380 kts 35°
2026-05-06 00:49 -4.80836 -33.24802 20877 ft 377 kts 34°
2026-05-06 00:49 -4.78649 -33.23376 20456 ft 374 kts 35°
2026-05-06 00:49 -4.76476 -33.21957 20033 ft 371 kts 36°
2026-05-06 00:49 -4.74318 -33.20547 19606 ft 370 kts 35°
2026-05-06 00:50 -4.72168 -33.19141 19185 ft 368 kts 34°
2026-05-06 00:50 -4.70057 -33.17765 18763 ft 366 kts 34°
2026-05-06 00:50 -4.67923 -33.16376 18341 ft 365 kts 36°
2026-05-06 00:50 -4.65800 -33.14992 17854 ft 364 kts 36°
2026-05-06 00:51 -4.63686 -33.13611 17419 ft 361 kts 35°
2026-05-06 00:51 -4.61588 -33.12242 16992 ft 359 kts 36°
2026-05-06 00:51 -4.59504 -33.10882 16575 ft 356 kts 36°
2026-05-06 00:51 -4.56764 -33.09096 16026 ft 353 kts 36°
2026-05-06 00:52 -4.55375 -33.08189 15749 ft 352 kts 36°
2026-05-06 00:52 -4.53328 -33.06855 15340 ft 350 kts 36°
2026-05-06 00:52 -4.51320 -33.05545 14926 ft 349 kts 36°
2026-05-06 00:52 -4.49291 -33.04222 14515 ft 347 kts 36°
2026-05-06 00:53 -4.47270 -33.02904 14097 ft 346 kts 36°
2026-05-06 00:53 -4.45251 -33.01587 13662 ft 346 kts 36°
2026-05-06 00:53 -4.43237 -33.00273 13221 ft 344 kts 36°
2026-05-06 00:53 -4.41235 -32.98967 12802 ft 342 kts 36°
2026-05-06 00:54 -4.39243 -32.97669 12401 ft 340 kts 36°
2026-05-06 00:54 -4.37267 -32.96380 12007 ft 338 kts 36°
2026-05-06 00:54 -4.35329 -32.95117 11611 ft 336 kts 36°
2026-05-06 00:54 -4.33377 -32.93845 11218 ft 334 kts 36°
2026-05-06 00:55 -4.31436 -32.92580 10829 ft 332 kts 36°
2026-05-06 00:55 -4.29519 -32.91331 10629 ft 324 kts 37°
2026-05-06 00:55 -4.27651 -32.90115 10464 ft 316 kts 37°
2026-05-06 00:55 -4.25837 -32.88935 10323 ft 307 kts 37°
2026-05-06 00:56 -4.24072 -32.87785 10191 ft 298 kts 36°
2026-05-06 00:56 -4.22358 -32.86669 10067 ft 290 kts 36°
2026-05-06 00:56 -4.20684 -32.85578 9817 ft 286 kts 37°
2026-05-06 00:56 -4.19027 -32.84497 9527 ft 284 kts 37°
2026-05-06 00:57 -4.17375 -32.83420 9238 ft 283 kts 36°
2026-05-06 00:57 -4.15755 -32.82362 8956 ft 281 kts 36°
2026-05-06 00:57 -4.14121 -32.81297 8670 ft 279 kts 37°
2026-05-06 00:57 -4.12497 -32.80238 8383 ft 278 kts 36°
2026-05-06 00:58 -4.10879 -32.79183 8098 ft 277 kts 37°
2026-05-06 00:58 -4.09269 -32.78134 7806 ft 276 kts 36°
2026-05-06 00:58 -4.07664 -32.77088 7527 ft 275 kts 36°
2026-05-06 00:58 -4.06066 -32.76047 7240 ft 274 kts 37°
2026-05-06 00:59 -4.04470 -32.75008 6969 ft 273 kts 36°
2026-05-06 00:59 -4.02879 -32.73971 6696 ft 273 kts 36°
2026-05-06 00:59 -4.01308 -32.72946 6399 ft 273 kts 37°
2026-05-06 00:59 -3.99715 -32.71910 6100 ft 273 kts 36°
2026-05-06 01:00 -3.98128 -32.70876 5809 ft 272 kts 36°
2026-05-06 01:00 -3.96546 -32.69847 5534 ft 271 kts 37°
2026-05-06 01:00 -3.94971 -32.68822 5316 ft 266 kts 37°
2026-05-06 01:00 -3.93458 -32.67840 5252 ft 251 kts 37°
2026-05-06 01:01 -3.91983 -32.67000 5092 ft 240 kts 29°
2026-05-06 01:01 -3.90440 -32.66316 4679 ft 241 kts 27°
2026-05-06 01:01 -3.88942 -32.65668 4398 ft 234 kts 28°
2026-05-06 01:01 -3.87484 -32.65027 4152 ft 225 kts 28°
2026-05-06 01:02 -3.86077 -32.64401 3932 ft 217 kts 29°
2026-05-06 01:02 -3.84768 -32.63733 3702 ft 204 kts 44°
2026-05-06 01:02 -3.84079 -32.62623 3546 ft 178 kts 86°
2026-05-06 01:02 -3.84039 -32.61419 3518 ft 171 kts 96°
2026-05-06 01:03 -3.84096 -32.60252 3500 ft 166 kts 98°
2026-05-06 01:03 -3.84183 -32.59074 3321 ft 173 kts 99°
2026-05-06 01:03 -3.84272 -32.57898 3093 ft 168 kts 98°
2026-05-06 01:03 -3.84355 -32.56774 2860 ft 157 kts 100°
2026-05-06 01:04 -3.84435 -32.55708 2678 ft 152 kts 100°
2026-05-06 01:04 -3.84512 -32.54689 2491 ft 142 kts 100°
2026-05-06 01:04 -3.84588 -32.53698 2309 ft 145 kts 99°
2026-05-06 01:04 -3.84665 -32.52673 2084 ft 149 kts 98°
2026-05-06 01:05 -3.84742 -32.51645 1899 ft 149 kts 99°
2026-05-06 01:05 -3.84820 -32.50612 1712 ft 149 kts 99°
2026-05-06 01:05 -3.84898 -32.49568 1499 ft 151 kts 99°
2026-05-06 01:05 -3.84975 -32.48550 1313 ft 146 kts 97°
2026-05-06 01:06 -3.85050 -32.47542 1098 ft 143 kts 98°
2026-05-06 01:06 -3.85134 -32.46557 968 ft 142 kts 99°
2026-05-06 01:06 -3.85207 -32.45532 842 ft 151 kts 96°
2026-05-06 01:06 -3.85281 -32.44477 612 ft 151 kts 98°
2026-05-06 01:07 -3.85349 -32.43448 317 ft 147 kts 98°
2026-05-06 01:07 -3.85430 -32.42472 169 ft 130 kts 96°
2026-05-06 01:07 -3.85481 -32.41810 174 ft 52 kts 95°
2026-05-06 01:07 -3.85498 -32.41570 176 ft 12 kts 85°
2026-05-06 01:08 -3.85473 -32.41507 175 ft 9 kts 96°
2026-05-06 01:08 -3.85490 -32.41504 175 ft 3 kts 217°
2026-05-06 01:08 -3.85499 -32.41526 175 ft 5 kts 259°
2026-05-06 01:08 -3.85499 -32.41579 176 ft 11 kts 274°
2026-05-06 01:09 -3.85492 -32.41674 176 ft 17 kts 274°
2026-05-06 01:09 -3.85482 -32.41814 174 ft 23 kts 274°
2026-05-06 01:09 -3.85468 -32.41991 175 ft 28 kts 275°
2026-05-06 01:09 -3.85452 -32.42198 170 ft 31 kts 274°
2026-05-06 01:10 -3.85437 -32.42417 167 ft 31 kts 274°
2026-05-06 01:10 -3.85421 -32.42620 167 ft 29 kts 274°
2026-05-06 01:10 -3.85432 -32.42726 165 ft 10 kts 219°
2026-05-06 01:10 -3.85492 -32.42754 166 ft 9 kts 200°
2026-05-06 01:11 -3.85506 -32.42759 167 ft 0 kts 199°
2026-05-06 01:11 -3.85511 -32.42761 168 ft 4 kts 199°
2026-05-06 01:11 -3.85566 -32.42770 169 ft 11 kts 175°
2026-05-06 01:11 -3.85591 -32.42770 169 ft 0 kts 184°
2026-05-06 01:12 -3.85595 -32.42772 169 ft 0 kts 214°